DW4393 Weather Reports


Display with metric or nautical units.
time (UTC)temp
F
wind
direction
speed
MPH
gust
MPH
rain 1hr
in
rain 24hr
in
rain mn
in
humidity
%
barometer
mb
20260906171807 92 250 0.0 0.0 0.00 0.00 0.00 56 1010.5
20260906170803 92 104 0.0 0.0 0.00 0.00 0.00 58 1010.7
20260906170305 92 48 0.0 0.0 0.00 0.00 0.00 56 1010.8
20260906164803 90 231 0.0 0.0 0.00 0.00 0.00 63 1011.0
20260906164303 90 247 0.0 0.0 0.00 0.00 0.00 62 1011.1
20260906163803 90 246 0.0 0.0 0.00 0.00 0.00 63 1011.1
20260906163303 88 238 0.0 0.0 0.00 0.00 0.00 65 1011.3
20260906161803 88 237 0.0 0.0 0.00 0.00 0.00 67 1011.5
20260906160304 87 216 0.0 0.0 0.00 0.00 0.00 65 1011.4
20260906154303 87 254 0.0 0.0 0.00 0.00 0.00 70 1011.6
20260906153803 86 294 0.0 0.0 0.00 0.00 0.00 70 1011.6
20260906151804 85 294 0.0 0.0 0.00 0.00 0.00 71 1011.6
20260906151303 85 294 0.0 0.0 0.00 0.00 0.00 71 1011.7
20260906150803 84 38 0.0 0.0 0.00 0.00 0.00 71 1011.7
20260906150304 84 54 0.0 0.0 0.00 0.00 0.00 73 1011.7
20260906144803 82 55 0.0 0.0 0.00 0.00 0.00 77 1011.7
20260906144303 82 55 0.0 0.0 0.00 0.00 0.00 76 1011.8
20260906143803 82 55 0.0 0.0 0.00 0.00 0.00 76 1011.8
20260906143303 81 55 0.0 0.0 0.00 0.00 0.00 76 1011.8
20260906141803 80 69 0.0 0.0 0.00 0.00 0.00 83 1011.9
20260906140803 79 173 0.0 0.0 0.00 0.00 0.00 85 1012.1
20260906140305 78 87 0.0 0.0 0.00 0.00 0.00 86 1012.1
20260906134803 75 176 0.0 0.0 0.00 0.00 0.00 94 1012.0
20260906133803 74 176 0.0 0.0 0.00 0.00 0.00 94 1011.8
20260906131803 73 176 0.0 0.0 0.00 0.00 0.00 94 1011.8
20260906130803 73 176 0.0 0.0 0.00 0.00 0.00 94 1011.7
20260906130304 73 176 0.0 0.0 0.00 0.00 0.00 94 1011.8
20260906124803 72 176 0.0 0.0 0.00 0.00 0.00 93 1011.6
20260906124303 72 176 0.0 0.0 0.00 0.00 0.00 93 1011.8
20260906123803 72 176 0.0 0.0 0.00 0.00 0.00 93 1011.6
20260906123303 72 176 0.0 0.0 0.00 0.00 0.00 93 1011.7
20260906121803 72 176 0.0 0.0 0.00 0.00 0.00 93 1011.6
20260906121304 72 176 0.0 0.0 0.00 0.00 0.00 93 1011.6
20260906120803 72 176 0.0 0.0 0.00 0.00 0.00 93 1011.7
20260906114803 72 176 0.0 0.0 0.00 0.00 0.00 93 1011.5
20260906114304 72 176 0.0 0.0 0.00 0.00 0.00 93 1011.5
20260906113804 72 176 0.0 0.0 0.00 0.00 0.00 93 1011.5
20260906113304 72 176 0.0 0.0 0.00 0.00 0.00 92 1011.4
20260906111803 72 176 0.0 0.0 0.00 0.00 0.00 92 1011.2
20260906111303 72 176 0.0 0.0 0.00 0.00 0.00 92 1011.1
20260906110304 72 176 0.0 0.0 0.00 0.00 0.00 92 1011.1
20260906104803 72 176 0.0 0.0 0.00 0.00 0.00 92 1011.1
20260906104303 72 176 0.0 0.0 0.00 0.00 0.00 92 1011.0
20260906103806 72 176 0.0 0.0 0.00 0.00 0.00 92 1011.1
20260906103303 72 176 0.0 0.0 0.00 0.00 0.00 92 1010.9
20260906101803 72 176 0.0 0.0 0.00 0.00 0.00 92 1010.9
20260906101303 72 176 0.0 0.0 0.00 0.00 0.00 92 1010.9
20260906100803 72 176 0.0 0.0 0.00 0.00 0.00 92 1010.9
20260906100303 72 176 0.0 0.0 0.00 0.00 0.00 92 1010.9
20260906094304 72 176 0.0 0.0 0.00 0.00 0.00 92 1010.9
20260906093803 72 176 0.0 0.0 0.00 0.00 0.00 92 1011.0
20260906093303 72 176 0.0 0.0 0.00 0.00 0.00 92 1011.0
20260906091804 72 176 0.0 0.0 0.00 0.00 0.00 92 1011.2
20260906091303 72 176 0.0 0.0 0.00 0.00 0.00 92 1011.3
20260906090804 72 176 0.0 0.0 0.00 0.00 0.00 91 1011.0
20260906090303 72 176 0.0 0.0 0.00 0.00 0.00 91 1011.0
20260906084803 72 176 0.0 0.0 0.00 0.00 0.00 91 1010.9
20260906084304 72 176 0.0 0.0 0.00 0.00 0.00 91 1010.9
20260906083804 72 176 0.0 0.0 0.00 0.00 0.00 91 1010.9
20260906083303 72 176 0.0 0.0 0.00 0.00 0.00 90 1010.9
20260906081803 72 176 0.0 0.0 0.00 0.00 0.00 90 1010.7
20260906081304 72 176 0.0 0.0 0.00 0.00 0.00 90 1010.7
20260906080303 72 176 0.0 0.0 0.00 0.00 0.00 90 1010.6
20260906074803 72 176 0.0 0.0 0.00 0.00 0.00 90 1010.8
20260906074304 72 176 0.0 0.0 0.00 0.00 0.00 90 1010.7
20260906073804 72 176 0.0 0.0 0.00 0.00 0.00 90 1010.7
20260906073303 72 176 0.0 0.0 0.00 0.00 0.00 90 1010.8
20260906071803 73 176 0.0 0.0 0.00 0.00 0.00 89 1010.7
20260906071304 73 176 0.0 0.0 0.00 0.00 0.00 89 1010.7
20260906070804 73 176 0.0 0.0 0.00 0.00 0.00 89 1010.7
20260906070305 73 176 0.0 0.0 0.00 0.00 0.00 89 1010.7
20260906064804 73 176 0.0 0.0 0.00 0.00 0.00 89 1010.7
20260906064303 73 176 0.0 0.0 0.00 0.00 0.00 89 1010.8
20260906063803 73 176 0.0 0.0 0.00 0.00 0.00 89 1010.8
20260906063304 73 176 0.0 0.0 0.00 0.00 0.00 89 1011.0
20260906061803 73 176 0.0 0.0 0.00 0.00 0.00 88 1011.4
20260906061304 73 176 0.0 0.0 0.00 0.00 0.00 88 1011.5
20260906060803 73 176 0.0 0.0 0.00 0.00 0.00 88 1011.5
20260906060304 73 176 0.0 0.0 0.00 0.00 0.00 88 1011.5
20260906054804 73 176 0.0 0.0 0.00 0.00 0.00 88 1011.6
20260906054304 73 176 0.0 0.0 0.00 0.00 0.00 88 1011.8
20260906053304 74 176 0.0 0.0 0.00 0.00 0.00 88 1011.9
20260906051804 74 176 0.0 0.0 0.00 0.00 0.00 88 1012.1
20260906050304 74 176 0.0 0.0 0.00 0.00 0.00 87 1012.1
20260906044804 74 176 0.0 0.0 0.00 0.00 0.00 87 1011.9
20260906043304 74 176 0.0 0.0 0.00 0.00 0.00 87 1011.6
20260906041303 75 176 0.0 0.0 0.00 0.00 0.00 87 1011.5
20260906040821 75 176 0.0 0.0 0.00 0.00 0.00 87 1011.5
20260906040304 75 176 0.0 0.0 0.00 0.00 0.00 87 1011.6
20260906034803 75 176 0.0 0.0 0.00 0.00 0.00 86 1011.7
20260906033803 75 176 0.0 0.0 0.00 0.00 0.00 86 1011.7
20260906033304 75 176 0.0 0.0 0.00 0.00 0.00 86 1011.6
20260906031803 76 176 0.0 0.0 0.00 0.00 0.00 86 1011.9
20260906031304 76 176 0.0 0.0 0.00 0.00 0.00 86 1012.0
20260906030304 76 176 0.0 0.0 0.00 0.00 0.00 86 1011.9
20260906024803 76 176 0.0 0.0 0.00 0.00 0.00 86 1012.1
20260906024304 76 176 0.0 0.0 0.00 0.00 0.00 86 1012.1
20260906023804 76 176 0.0 0.0 0.00 0.00 0.00 86 1012.0
20260906023303 76 176 0.0 0.0 0.00 0.00 0.00 86 1012.0
20260906021804 76 176 0.0 0.0 0.00 0.00 0.00 87 1012.3
20260906021304 76 176 0.0 0.0 0.00 0.00 0.00 86 1012.2
20260906020804 76 176 0.0 0.0 0.00 0.00 0.00 86 1012.1
20260906014804 77 176 0.0 0.0 0.00 0.00 0.00 85 1012.3
20260906014303 77 176 0.0 0.0 0.00 0.00 0.00 85 1012.2
20260906013803 77 176 0.0 0.0 0.00 0.00 0.00 85 1012.3
20260906013304 77 176 0.0 0.0 0.00 0.00 0.00 85 1012.5
20260906011804 78 173 0.0 0.0 0.00 0.00 0.00 84 1011.9
20260906011304 78 130 0.0 0.0 0.00 0.00 0.00 83 1011.6
20260906010804 78 130 0.0 0.0 0.00 0.00 0.00 83 1011.5
20260906010303 78 130 0.0 0.0 0.00 0.00 0.00 83 1011.3
20260906004804 79 130 0.0 0.0 0.00 0.00 0.00 83 1011.7
20260906004304 79 92 0.0 0.0 0.00 0.00 0.00 81 1011.6
20260906003803 79 92 0.0 0.0 0.00 0.00 0.00 80 1011.8
20260906003303 79 92 0.0 0.0 0.00 0.00 0.00 79 1012.0
20260906001803 80 92 0.0 0.0 0.00 0.00 0.00 75 1011.8
20260906001302 80 92 0.0 0.0 0.00 0.00 0.00 73 1011.4
20260906000303 81 92 0.0 0.0 0.00 0.00 0.00 72 1010.7
20260905234802 82 92 0.0 0.0 0.00 0.00 0.00 71 1010.1
20260905234302 82 90 0.0 0.0 0.00 0.00 0.00 69 1009.4
20260905233303 82 92 0.0 0.0 0.00 0.00 0.00 68 1009.5
20260905231803 83 65 0.0 0.0 0.00 0.00 0.00 65 1010.8
20260905230802 84 254 0.0 0.0 0.00 0.00 0.00 65 1010.7
20260905230303 85 254 0.0 0.0 0.00 0.00 0.00 64 1010.0
20260905224803 86 254 0.0 0.0 0.00 0.00 0.00 59 1010.2
20260905224302 87 355 0.0 0.0 0.00 0.00 0.00 57 1010.1
20260905223802 88 36 0.0 0.0 0.00 0.00 0.00 58 1010.3
20260905223302 88 38 0.0 0.0 0.00 0.00 0.00 57 1010.1
20260905221802 90 342 0.0 0.0 0.00 0.00 0.00 56 1009.4
20260905221303 90 86 0.0 0.0 0.00 0.00 0.00 56 1009.4
20260905220303 92 5 0.0 0.0 0.00 0.00 0.00 56 1009.2
20260905214803 91 248 0.0 0.0 0.00 0.00 0.00 59 1009.0
20260905214303 92 248 0.0 0.0 0.00 0.00 0.00 60 1008.9
20260905213802 92 248 0.0 0.0 0.00 0.00 0.00 60 1009.0
20260905213303 93 248 0.0 0.0 0.00 0.00 0.00 60 1009.1
20260905211803 94 248 0.0 0.0 0.00 0.00 0.00 52 1008.9
20260905211303 95 248 0.0 0.0 0.00 0.00 0.00 50 1009.0
20260905210303 97 248 0.0 0.0 0.00 0.00 0.00 47 1009.1
20260905204803 98 236 0.0 0.0 0.00 0.00 0.00 45 1009.4
20260905204303 97 244 0.0 0.0 0.00 0.00 0.00 47 1009.4
20260905203802 97 250 0.0 0.0 0.00 0.00 0.00 48 1009.5
20260905203302 96 250 0.0 0.0 0.00 0.00 0.00 47 1009.6
20260905201803 97 225 0.0 0.0 0.00 0.00 0.00 47 1009.8
20260905201303 98 242 0.0 0.0 0.00 0.00 0.00 45 1009.8
20260905200803 97 205 0.0 0.0 0.00 0.00 0.00 46 1009.9
20260905200303 98 209 0.0 0.0 0.00 0.00 0.00 44 1009.9
20260905194802 99 148 0.0 0.0 0.00 0.00 0.00 44 1010.0
20260905193802 99 149 0.0 0.0 0.00 0.00 0.00 48 1010.2
20260905193303 97 150 0.0 0.0 0.00 0.00 0.00 45 1010.2
20260905191803 98 153 0.0 0.0 0.00 0.00 0.00 44 1010.4
20260905191303 98 193 0.0 0.0 0.00 0.00 0.00 45 1010.4
20260905190803 98 199 0.0 0.0 0.00 0.00 0.00 46 1010.5
20260905184803 96 257 0.0 0.0 0.00 0.00 0.00 49 1010.8
20260905184303 95 249 0.0 0.0 0.00 0.00 0.00 50 1010.8
20260905183803 95 269 0.0 0.0 0.00 0.00 0.00 48 1010.8
20260905183302 96 269 0.0 0.0 0.00 0.00 0.00 48 1011.0
20260905181803 97 322 0.0 0.0 0.00 0.00 0.00 46 1011.2
20260905181303 97 138 0.0 0.0 0.00 0.00 0.00 46 1011.2
20260905180803 96 251 0.0 0.0 0.00 0.00 0.00 48 1011.4
20260905180303 95 303 0.0 0.0 0.00 0.00 0.00 51 1011.3
20260905174803 94 240 0.0 0.0 0.00 0.00 0.00 53 1011.5
20260905174303 94 219 0.0 0.0 0.00 0.00 0.00 52 1011.6
20260905173303 94 336 0.0 0.0 0.00 0.00 0.00 49 1011.8